When you browse on this site, cookies collect data to enhance your experience and personalize the content and advertising you see.
Visit our Privacy Policy to learn more. By continuing to use the site, you agree to this use of cookies and data.
  • In Hungary
  • List of Countries
  • For 7 days
  • Water Temperature
  • Weather Map
  • News
  • Weather Widgets
  • user-avatar
    Login

    Hourly Weather Westerstede

    Today, 9 December, Monday

    Time Temperature Precipitation Wind Pressure Humidity
    00:00 +4°C° 0.1 mm 7 mps 744 mmHg 83%
    01:00 +4°C° 0 mm 6 mps 744 mmHg 86%
    02:00 +4°C° 0 mm 7 mps 744 mmHg 85%
    03:00 +4°C° 0 mm 7 mps 743 mmHg 84%
    04:00 +4°C° 0 mm 8 mps 743 mmHg 83%
    05:00 +3°C° 0 mm 7 mps 743 mmHg 84%
    06:00 +3°C° 0 mm 7 mps 743 mmHg 86%
    07:00 +3°C° 0 mm 6 mps 743 mmHg 87%
    08:00 +4°C° 0 mm 6 mps 743 mmHg 87%
    09:00 +5°C° 0 mm 5 mps 743 mmHg 87%
    10:00 +5°C° 0 mm 4 mps 743 mmHg 87%
    11:00 +5°C° 0 mm 4 mps 744 mmHg 86%
    12:00 +6°C° 0 mm 4 mps 744 mmHg 86%
    13:00 +6°C° 0 mm 4 mps 745 mmHg 85%
    14:00 +6°C° 0.3 mm 5 mps 746 mmHg 82%
    15:00 +6°C° 0.3 mm 5 mps 747 mmHg 79%
    16:00 +5°C° 0.3 mm 6 mps 749 mmHg 76%
    17:00 +4°C° 0 mm 7 mps 751 mmHg 74%
    18:00 +4°C° 0 mm 7 mps 752 mmHg 73%
    19:00 +3°C° 0 mm 7 mps 754 mmHg 71%
    20:00 +3°C° 0 mm 7 mps 755 mmHg 72%
    21:00 +3°C° 0 mm 6 mps 756 mmHg 72%
    22:00 +2°C° 0 mm 6 mps 758 mmHg 73%
    23:00 +2°C° 0.1 mm 6 mps 759 mmHg 73%

    Tomorrow, 10 December, Tuesday

    Time Temperature Precipitation Wind Pressure Humidity
    00:00 +2°C° 0.1 mm 6 mps 760 mmHg 74%
    01:00 +2°C° 0.1 mm 6 mps 761 mmHg 75%
    02:00 +2°C° 0 mm 5 mps 761 mmHg 76%
    03:00 +2°C° 0 mm 5 mps 762 mmHg 76%
    04:00 +2°C° 0 mm 5 mps 763 mmHg 77%
    05:00 +1°C° 0 mm 4 mps 764 mmHg 79%
    06:00 0°C° 0 mm 4 mps 765 mmHg 80%
    07:00 +1°C° 0 mm 3 mps 765 mmHg 82%
    08:00 +1°C° 0 mm 3 mps 766 mmHg 82%
    09:00 +1°C° 0 mm 3 mps 766 mmHg 82%
    10:00 +1°C° 0 mm 3 mps 766 mmHg 82%
    11:00 +1°C° 0 mm 4 mps 766 mmHg 80%
    12:00 +3°C° 0 mm 4 mps 766 mmHg 77%
    13:00 +2°C° 0 mm 5 mps 766 mmHg 75%
    14:00 +2°C° 0 mm 5 mps 765 mmHg 77%
    15:00 +2°C° 0 mm 5 mps 764 mmHg 79%
    16:00 +1°C° 0 mm 5 mps 763 mmHg 81%
    17:00 +1°C° 0 mm 6 mps 763 mmHg 81%
    18:00 0°C° 0 mm 7 mps 762 mmHg 80%
    19:00 0°C° 0 mm 7 mps 762 mmHg 80%
    20:00 0°C° 0 mm 8 mps 761 mmHg 77%
    21:00 0°C° 0 mm 8 mps 760 mmHg 74%
    22:00 0°C° 0 mm 9 mps 759 mmHg 71%
    23:00 +1°C° 0.2 mm 9 mps 758 mmHg 70%

    Day after tomorrow, 11 December, Wednesday

    Time Temperature Precipitation Wind Pressure Humidity
    00:00 +1°C° 0.2 mm 9 mps 757 mmHg 69%
    01:00 +1°C° 0.2 mm 9 mps 756 mmHg 68%
    02:00 +1°C° 0.1 mm 9 mps 755 mmHg 69%
    03:00 +1°C° 0.1 mm 9 mps 755 mmHg 71%
    04:00 +1°C° 0.1 mm 9 mps 754 mmHg 73%
    05:00 +2°C° 0.1 mm 8 mps 754 mmHg 77%
    06:00 +2°C° 0.1 mm 8 mps 754 mmHg 80%
    07:00 +3°C° 0.1 mm 7 mps 754 mmHg 83%
    08:00 +3°C° 0.2 mm 7 mps 754 mmHg 86%
    09:00 +3°C° 0.2 mm 6 mps 754 mmHg 89%
    10:00 +3°C° 0.2 mm 5 mps 754 mmHg 91%
    11:00 +4°C° 0.2 mm 4 mps 753 mmHg 92%
    12:00 +4°C° 0.2 mm 4 mps 753 mmHg 93%
    13:00 +4°C° 0.2 mm 3 mps 752 mmHg 94%
    14:00 +4°C° 0.6 mm 3 mps 752 mmHg 95%
    15:00 +4°C° 0.6 mm 3 mps 751 mmHg 96%
    16:00 +5°C° 0.6 mm 2 mps 751 mmHg 96%
    17:00 +4°C° 0.2 mm 3 mps 751 mmHg 96%
    18:00 +4°C° 0.2 mm 3 mps 751 mmHg 95%
    19:00 +4°C° 0.2 mm 3 mps 751 mmHg 94%
    20:00 +3°C° 0 mm 3 mps 751 mmHg 95%
    21:00 +3°C° 0 mm 3 mps 751 mmHg 95%
    22:00 +1°C° 0 mm 4 mps 751 mmHg 95%
    23:00 +2°C° 0 mm 3 mps 751 mmHg 95%

    12 December, Thursday

    Time Temperature Precipitation Wind Pressure Humidity
    00:00 +2°C° 0 mm 3 mps 751 mmHg 94%
    01:00 +1°C° 0 mm 3 mps 751 mmHg 94%
    02:00 +1°C° 0 mm 3 mps 750 mmHg 94%
    03:00 0°C° 0 mm 4 mps 750 mmHg 94%
    04:00 0°C° 0 mm 4 mps 749 mmHg 95%
    05:00 0°C° 0 mm 4 mps 749 mmHg 94%
    06:00 0°C° 0 mm 4 mps 749 mmHg 93%
    07:00 +1°C° 0 mm 4 mps 749 mmHg 92%
    08:00 +1°C° 0 mm 4 mps 749 mmHg 91%
    09:00 +1°C° 0 mm 5 mps 749 mmHg 91%
    10:00 +2°C° 0 mm 5 mps 749 mmHg 90%
    11:00 +2°C° 0.1 mm 5 mps 748 mmHg 89%
    12:00 +2°C° 0.1 mm 5 mps 748 mmHg 87%
    13:00 +3°C° 0.1 mm 5 mps 748 mmHg 86%
    14:00 +2°C° 0 mm 5 mps 747 mmHg 84%
    15:00 +2°C° 0 mm 6 mps 746 mmHg 83%
    16:00 +1°C° 0 mm 6 mps 746 mmHg 82%
    17:00 0°C° 0 mm 7 mps 745 mmHg 81%
    18:00 0°C° 0 mm 7 mps 743 mmHg 81%
    19:00 0°C° 0 mm 8 mps 742 mmHg 81%
    20:00 0°C° 0.1 mm 9 mps 740 mmHg 82%
    21:00 -1°C° 0.1 mm 11 mps 737 mmHg 84%
    22:00 -1°C° 0.1 mm 12 mps 735 mmHg 85%
    23:00 +1°C° 1.3 mm 11 mps 733 mmHg 87%

    13 December, Friday

    Time Temperature Precipitation Wind Pressure Humidity
    00:00 +1°C° 1.3 mm 11 mps 731 mmHg 90%
    01:00 +2°C° 1.3 mm 11 mps 729 mmHg 92%
    02:00 +2°C° 0.8 mm 9 mps 728 mmHg 90%
    03:00 +2°C° 0.8 mm 7 mps 727 mmHg 89%
    04:00 +2°C° 0.8 mm 5 mps 726 mmHg 87%
    05:00 +2°C° 0 mm 5 mps 726 mmHg 86%
    06:00 +1°C° 0 mm 6 mps 726 mmHg 85%
    07:00 +1°C° 0 mm 6 mps 726 mmHg 84%
    08:00 +1°C° 0.1 mm 6 mps 726 mmHg 84%
    09:00 +1°C° 0.1 mm 6 mps 726 mmHg 83%
    10:00 0°C° 0.1 mm 7 mps 726 mmHg 83%
    11:00 +2°C° 0 mm 7 mps 726 mmHg 82%
    12:00 +2°C° 0 mm 7 mps 726 mmHg 81%
    13:00 +2°C° 0 mm 7 mps 725 mmHg 80%
    14:00 +2°C° 0.8 mm 6 mps 725 mmHg 84%
    15:00 +2°C° 0.8 mm 6 mps 724 mmHg 89%
    16:00 +2°C° 0.8 mm 5 mps 724 mmHg 94%
    17:00 +2°C° 0.1 mm 6 mps 724 mmHg 91%
    18:00 +2°C° 0.1 mm 6 mps 725 mmHg 88%
    19:00 +3°C° 0.1 mm 7 mps 725 mmHg 85%
    20:00 +2°C° 0.5 mm 8 mps 727 mmHg 87%
    21:00 +2°C° 0.5 mm 8 mps 728 mmHg 89%
    22:00 +2°C° 0.5 mm 9 mps 729 mmHg 91%
    23:00 +2°C° 0.6 mm 9 mps 730 mmHg 86%

    14 December, Saturday

    Time Temperature Precipitation Wind Pressure Humidity
    00:00 +2°C° 0.6 mm 9 mps 730 mmHg 81%
    01:00 +2°C° 0.6 mm 10 mps 731 mmHg 75%
    02:00 +2°C° 0 mm 9 mps 732 mmHg 76%
    03:00 +2°C° 0 mm 9 mps 732 mmHg 76%
    04:00 +1°C° 0 mm 9 mps 733 mmHg 76%
    05:00 +1°C° 0 mm 8 mps 733 mmHg 78%
    06:00 +1°C° 0 mm 8 mps 734 mmHg 79%
    07:00 +1°C° 0 mm 8 mps 734 mmHg 80%
    08:00 +2°C° 0.1 mm 7 mps 735 mmHg 80%
    09:00 +2°C° 0.1 mm 7 mps 736 mmHg 80%
    10:00 +2°C° 0.1 mm 7 mps 736 mmHg 80%
    11:00 +2°C° 0.1 mm 8 mps 737 mmHg 78%
    12:00 +2°C° 0.1 mm 8 mps 737 mmHg 76%
    13:00 +4°C° 0.1 mm 8 mps 738 mmHg 74%
    14:00 +4°C° 0.2 mm 8 mps 739 mmHg 76%
    15:00 +2°C° 0.2 mm 8 mps 740 mmHg 78%
    16:00 +2°C° 0.2 mm 8 mps 740 mmHg 80%
    17:00 +1°C° 0.1 mm 8 mps 741 mmHg 79%
    18:00 +2°C° 0.1 mm 7 mps 742 mmHg 78%
    19:00 +2°C° 0.1 mm 7 mps 742 mmHg 77%
    20:00 +2°C° 0 mm 7 mps 743 mmHg 78%
    21:00 +2°C° 0 mm 7 mps 743 mmHg 79%
    22:00 +2°C° 0 mm 7 mps 744 mmHg 79%
    23:00 +2°C° 0 mm 7 mps 745 mmHg 80%
    Show more